| time (UTC) | temp F | wind direction | speed MPH | gust MPH | rain 1hr in | rain 24hr in | rain mn in | humidity % | barometer mb |
| 20260504223622 | 72 | 221 | 7.0 | 18.0 | 0.00 | 0.02 | 0.01 | 44 | 1007.1 |
| 20260504223137 | 73 | 186 | 9.0 | 18.0 | 0.00 | 0.02 | 0.01 | 43 | 1007.1 |
| 20260504222625 | 73 | 245 | 6.0 | 16.0 | 0.00 | 0.02 | 0.01 | 44 | 1007.1 |
| 20260504222138 | 74 | 222 | 7.0 | 17.0 | 0.00 | 0.02 | 0.01 | 44 | 1007.0 |
| 20260504221644 | 74 | 195 | 8.0 | 17.0 | 0.00 | 0.02 | 0.01 | 43 | 1007.0 |
| 20260504221118 | 75 | 232 | 10.0 | 16.0 | 0.00 | 0.02 | 0.01 | 42 | 1007.0 |
| 20260504220633 | 75 | 221 | 10.0 | 15.0 | 0.00 | 0.02 | 0.01 | 42 | 1007.0 |
| 20260504220120 | 74 | 204 | 5.0 | 17.0 | 0.00 | 0.02 | 0.01 | 43 | 1007.0 |
| 20260504215636 | 74 | 219 | 8.0 | 16.0 | 0.00 | 0.02 | 0.01 | 43 | 1007.1 |
| 20260504215122 | 74 | 234 | 5.0 | 19.0 | 0.00 | 0.02 | 0.01 | 43 | 1007.1 |
| 20260504214636 | 74 | 209 | 8.0 | 19.0 | 0.00 | 0.02 | 0.01 | 43 | 1007.0 |
| 20260504214125 | 74 | 183 | 11.0 | 18.0 | 0.00 | 0.02 | 0.01 | 45 | 1007.0 |
| 20260504213618 | 73 | 170 | 10.0 | 15.0 | 0.00 | 0.02 | 0.01 | 45 | 1006.9 |
| 20260504213127 | 73 | 168 | 7.0 | 17.0 | 0.00 | 0.02 | 0.01 | 45 | 1007.0 |
| 20260504212643 | 73 | 182 | 10.0 | 19.0 | 0.00 | 0.02 | 0.01 | 46 | 1006.9 |
| 20260504212115 | 74 | 174 | 9.0 | 19.0 | 0.00 | 0.02 | 0.01 | 43 | 1006.9 |
| 20260504211629 | 75 | 224 | 12.0 | 22.0 | 0.00 | 0.02 | 0.01 | 41 | 1007.0 |
| 20260504211124 | 75 | 172 | 17.0 | 22.0 | 0.00 | 0.02 | 0.01 | 44 | 1006.9 |
| 20260504210638 | 74 | 174 | 8.0 | 24.0 | 0.00 | 0.02 | 0.01 | 44 | 1007.0 |
| 20260504210143 | 73 | 175 | 14.0 | 24.0 | 0.00 | 0.02 | 0.01 | 45 | 1007.0 |
| 20260504205636 | 73 | 198 | 10.0 | 17.0 | 0.00 | 0.02 | 0.01 | 45 | 1007.1 |
| 20260504205122 | 73 | 205 | 10.0 | 19.0 | 0.00 | 0.02 | 0.01 | 44 | 1007.1 |
| 20260504204636 | 73 | 210 | 11.0 | 19.0 | 0.00 | 0.02 | 0.01 | 45 | 1007.0 |
| 20260504204122 | 72 | 167 | 6.0 | 14.0 | 0.00 | 0.02 | 0.01 | 45 | 1007.0 |
| 20260504203636 | 73 | 189 | 8.0 | 13.0 | 0.00 | 0.02 | 0.01 | 44 | 1007.1 |
| 20260504203121 | 73 | 208 | 3.0 | 16.0 | 0.00 | 0.02 | 0.01 | 45 | 1007.1 |
| 20260504202635 | 73 | 193 | 7.0 | 19.0 | 0.00 | 0.02 | 0.01 | 44 | 1007.2 |
| 20260504202121 | 73 | 192 | 10.0 | 22.0 | 0.00 | 0.02 | 0.01 | 44 | 1007.2 |
| 20260504201616 | 74 | 193 | 12.0 | 22.0 | 0.00 | 0.02 | 0.01 | 42 | 1007.5 |
| 20260504201130 | 74 | 174 | 17.0 | 24.0 | 0.00 | 0.02 | 0.01 | 44 | 1007.5 |
| 20260504200620 | 74 | 168 | 10.0 | 23.0 | 0.00 | 0.03 | 0.01 | 42 | 1007.4 |
| 20260504200154 | 74 | 169 | 12.0 | 25.0 | 0.00 | 0.03 | 0.01 | 44 | 1007.6 |
| 20260504195621 | 73 | 172 | 7.0 | 18.0 | 0.00 | 0.03 | 0.01 | 45 | 1007.4 |
| 20260504195135 | 73 | 189 | 6.0 | 18.0 | 0.00 | 0.03 | 0.01 | 43 | 1007.5 |
| 20260504194623 | 73 | 191 | 11.0 | 18.0 | 0.00 | 0.03 | 0.01 | 42 | 1007.6 |
| 20260504194119 | 73 | 201 | 9.0 | 17.0 | 0.00 | 0.03 | 0.01 | 43 | 1007.7 |
| 20260504193629 | 74 | 194 | 14.0 | 25.0 | 0.00 | 0.03 | 0.01 | 41 | 1007.7 |
| 20260504193121 | 74 | 170 | 14.0 | 25.0 | 0.00 | 0.03 | 0.01 | 44 | 1008.2 |
| 20260504192617 | 73 | 189 | 10.0 | 23.0 | 0.00 | 0.03 | 0.01 | 46 | 1008.0 |
| 20260504192131 | 72 | 161 | 9.0 | 24.0 | 0.00 | 0.03 | 0.01 | 44 | 1007.9 |
| 20260504191637 | 73 | 183 | 12.0 | 24.0 | 0.00 | 0.03 | 0.01 | 42 | 1008.0 |
| 20260504191126 | 73 | 185 | 8.0 | 28.0 | 0.00 | 0.03 | 0.01 | 42 | 1008.1 |
| 20260504190619 | 74 | 166 | 13.0 | 28.0 | 0.00 | 0.04 | 0.01 | 42 | 1008.2 |
| 20260504190114 | 74 | 153 | 11.0 | 21.0 | 0.00 | 0.04 | 0.01 | 43 | 1008.3 |
| 20260504185631 | 74 | 178 | 13.0 | 21.0 | 0.00 | 0.04 | 0.01 | 42 | 1008.3 |
| 20260504185133 | 73 | 230 | 9.0 | 18.0 | 0.00 | 0.04 | 0.01 | 42 | 1008.3 |
| 20260504184641 | 72 | 224 | 10.0 | 24.0 | 0.00 | 0.04 | 0.01 | 44 | 1008.4 |
| 20260504184135 | 72 | 161 | 16.0 | 24.0 | 0.00 | 0.04 | 0.01 | 42 | 1008.6 |
| 20260504183621 | 72 | 157 | 6.0 | 20.0 | 0.00 | 0.04 | 0.01 | 42 | 1008.6 |
| 20260504183132 | 73 | 170 | 13.0 | 21.0 | 0.00 | 0.04 | 0.01 | 41 | 1008.8 |
| 20260504182622 | 73 | 164 | 9.0 | 24.0 | 0.00 | 0.04 | 0.01 | 42 | 1008.9 |
| 20260504182118 | 73 | 255 | 13.0 | 24.0 | 0.00 | 0.04 | 0.01 | 39 | 1008.6 |
| 20260504181633 | 74 | 228 | 8.0 | 17.0 | 0.00 | 0.04 | 0.01 | 42 | 1008.8 |
| 20260504181139 | 73 | 175 | 7.0 | 21.0 | 0.00 | 0.04 | 0.01 | 42 | 1008.9 |
| 20260504180619 | 72 | 177 | 11.0 | 20.0 | 0.00 | 0.04 | 0.01 | 42 | 1008.9 |
| 20260504180153 | 72 | 222 | 8.0 | 19.0 | 0.00 | 0.04 | 0.01 | 40 | 1009.0 |
| 20260504175640 | 72 | 223 | 12.0 | 19.0 | 0.00 | 0.04 | 0.01 | 40 | 1009.1 |
| 20260504175150 | 72 | 208 | 13.0 | 21.0 | 0.00 | 0.04 | 0.01 | 40 | 1009.2 |
| 20260504174624 | 72 | 238 | 8.0 | 19.0 | 0.00 | 0.04 | 0.01 | 40 | 1009.2 |
| 20260504174120 | 72 | 205 | 9.0 | 22.0 | 0.00 | 0.04 | 0.01 | 43 | 1009.4 |
| 20260504173633 | 71 | 240 | 10.0 | 22.0 | 0.00 | 0.04 | 0.01 | 41 | 1009.4 |
| 20260504173124 | 71 | 251 | 12.0 | 23.0 | 0.00 | 0.04 | 0.01 | 42 | 1009.5 |
| 20260504172620 | 71 | 228 | 6.0 | 14.0 | 0.00 | 0.04 | 0.01 | 43 | 1009.4 |
| 20260504172134 | 71 | 240 | 6.0 | 18.0 | 0.00 | 0.04 | 0.01 | 41 | 1009.5 |
| 20260504171621 | 71 | 195 | 11.0 | 18.0 | 0.00 | 0.04 | 0.01 | 43 | 1009.7 |
| 20260504171157 | 70 | 173 | 7.0 | 20.0 | 0.00 | 0.04 | 0.01 | 43 | 1009.6 |
| 20260504170641 | 70 | 233 | 12.0 | 30.0 | 0.00 | 0.05 | 0.01 | 42 | 1009.8 |
| 20260504170136 | 70 | 198 | 14.0 | 30.0 | 0.00 | 0.05 | 0.01 | 43 | 1009.9 |
| 20260504160114 | 69 | 189 | 12.0 | 23.0 | 0.00 | 0.07 | 0.01 | 48 | 1010.4 |
| 20260504151120 | 66 | 169 | 12.0 | 22.0 | 0.00 | 0.07 | 0.01 | 47 | 1011.0 |
| 20260504150633 | 66 | 231 | 10.0 | 19.0 | 0.00 | 0.09 | 0.01 | 47 | 1011.1 |
| 20260504150140 | 65 | 200 | 10.0 | 19.0 | 0.00 | 0.09 | 0.01 | 46 | 1011.1 |
| 20260504141157 | 60 | 191 | 9.0 | 17.0 | 0.00 | 0.09 | 0.01 | 54 | 1011.8 |
| 20260504140622 | 60 | 176 | 8.0 | 17.0 | 0.00 | 0.12 | 0.01 | 56 | 1011.8 |
| 20260504140136 | 59 | 180 | 9.0 | 12.0 | 0.00 | 0.12 | 0.01 | 58 | 1011.8 |
| 20260504130618 | 51 | 187 | 3.0 | 8.0 | 0.00 | 0.16 | 0.01 | 66 | 1012.2 |
| 20260504130148 | 50 | 170 | 3.0 | 5.0 | 0.00 | 0.16 | 0.01 | 67 | 1012.2 |
| 20260504120115 | 44 | 185 | 3.0 | 5.0 | 0.00 | 0.21 | 0.01 | 81 | 1012.5 |
| 20260504110625 | 37 | 215 | 3.0 | 5.0 | 0.00 | 0.21 | 0.01 | 87 | 1012.7 |
| 20260504110119 | 36 | 214 | 4.0 | 5.0 | 0.00 | 0.21 | 0.01 | 87 | 1012.7 |
| 20260504100132 | 36 | 201 | 3.0 | 4.0 | 0.01 | 0.21 | 0.01 | 87 | 1012.8 |
| 20260504090115 | 36 | 173 | 3.0 | 11.0 | 0.00 | 0.21 | 0.20 | 88 | 1013.0 |
| 20260504081621 | 34 | 222 | 2.0 | 3.0 | 0.00 | 0.21 | 0.20 | 88 | 1013.2 |
| 20260504081117 | 34 | 222 | 1.0 | 3.0 | 0.00 | 0.21 | 0.20 | 88 | 1013.3 |
| 20260504080630 | 34 | 222 | 0.0 | 3.0 | 0.00 | 0.21 | 0.20 | 88 | 1013.4 |
| 20260504080119 | 33 | 222 | 1.0 | 4.0 | 0.00 | 0.21 | 0.20 | 88 | 1013.4 |
| 20260504070159 | 32 | 226 | 3.0 | 4.0 | 0.00 | 0.21 | 0.20 | 88 | 1013.5 |
| 20260504060132 | 33 | 226 | 0.0 | 3.0 | 0.00 | 0.21 | 0.20 | 87 | 1013.7 |
| 20260504050633 | 35 | 226 | 0.0 | 0.0 | 0.00 | 0.21 | 0.20 | 86 | 1014.0 |
| 20260504050122 | 35 | 226 | 0.0 | 0.0 | 0.00 | 0.21 | 0.20 | 86 | 1014.0 |
| 20260504045617 | 35 | 226 | 0.0 | 0.0 | 0.00 | 0.21 | 0.20 | 86 | 1014.0 |
| 20260504045132 | 35 | 226 | 0.0 | 0.0 | 0.00 | 0.21 | 0.20 | 86 | 1014.0 |
| 20260504044619 | 35 | 226 | 0.0 | 0.0 | 0.00 | 0.21 | 0.20 | 86 | 1014.0 |
| 20260504044135 | 35 | 226 | 0.0 | 0.0 | 0.00 | 0.21 | 0.20 | 86 | 1014.0 |
| 20260504043622 | 35 | 226 | 0.0 | 0.0 | 0.00 | 0.21 | 0.20 | 86 | 1014.0 |
| 20260504043117 | 35 | 226 | 0.0 | 0.0 | 0.00 | 0.21 | 0.20 | 85 | 1014.0 |
| 20260504042632 | 36 | 226 | 0.0 | 0.0 | 0.00 | 0.21 | 0.20 | 85 | 1014.0 |
| 20260504042119 | 36 | 226 | 0.0 | 0.0 | 0.00 | 0.21 | 0.20 | 85 | 1013.9 |
| 20260504041634 | 36 | 226 | 0.0 | 0.0 | 0.00 | 0.21 | 0.20 | 84 | 1013.9 |
| 20260504041121 | 36 | 226 | 0.0 | 0.0 | 0.00 | 0.21 | 0.20 | 84 | 1014.0 |
| 20260504040635 | 36 | 226 | 0.0 | 0.0 | 0.00 | 0.21 | 0.20 | 84 | 1014.0 |
| 20260504040121 | 37 | 226 | 0.0 | 0.0 | 0.00 | 0.21 | 0.20 | 84 | 1014.0 |
| 20260504035626 | 37 | 226 | 0.0 | 0.0 | 0.00 | 0.21 | 0.20 | 84 | 1014.0 |
| 20260504035120 | 37 | 226 | 0.0 | 0.0 | 0.00 | 0.21 | 0.20 | 83 | 1014.0 |
| 20260504034634 | 37 | 226 | 0.0 | 0.0 | 0.00 | 0.21 | 0.20 | 83 | 1014.0 |
| 20260504034143 | 38 | 226 | 0.0 | 0.0 | 0.00 | 0.21 | 0.20 | 83 | 1014.0 |
| 20260504033656 | 38 | 226 | 0.0 | 2.0 | 0.00 | 0.21 | 0.20 | 83 | 1014.1 |
| 20260504033122 | 38 | 226 | 0.0 | 2.0 | 0.00 | 0.21 | 0.20 | 83 | 1014.0 |
| 20260504032637 | 38 | 226 | 0.0 | 0.0 | 0.00 | 0.21 | 0.20 | 83 | 1014.0 |
| 20260504032142 | 38 | 226 | 0.0 | 0.0 | 0.00 | 0.21 | 0.20 | 82 | 1014.0 |
| 20260504031615 | 38 | 226 | 0.0 | 0.0 | 0.00 | 0.21 | 0.20 | 82 | 1014.0 |
| 20260504031131 | 38 | 226 | 0.0 | 2.0 | 0.00 | 0.21 | 0.20 | 82 | 1013.9 |
| 20260504030618 | 38 | 226 | 1.0 | 3.0 | 0.00 | 0.22 | 0.20 | 82 | 1013.9 |
| 20260504030132 | 38 | 226 | 0.0 | 3.0 | 0.00 | 0.22 | 0.20 | 82 | 1013.9 |
| 20260504025620 | 38 | 226 | 1.0 | 3.0 | 0.00 | 0.22 | 0.20 | 82 | 1013.9 |
| 20260504025135 | 39 | 226 | 2.0 | 3.0 | 0.00 | 0.22 | 0.20 | 82 | 1013.9 |
| 20260504024622 | 39 | 226 | 1.0 | 2.0 | 0.00 | 0.22 | 0.20 | 81 | 1013.9 |
| 20260504024117 | 39 | 227 | 0.0 | 2.0 | 0.00 | 0.22 | 0.20 | 81 | 1014.0 |
| 20260504023630 | 39 | 227 | 0.0 | 0.0 | 0.00 | 0.22 | 0.20 | 80 | 1014.0 |
| 20260504023118 | 40 | 227 | 0.0 | 0.0 | 0.00 | 0.22 | 0.20 | 80 | 1013.9 |
| 20260504022633 | 40 | 227 | 0.0 | 0.0 | 0.00 | 0.22 | 0.20 | 79 | 1013.9 |
| 20260504022140 | 40 | 227 | 0.0 | 0.0 | 0.00 | 0.22 | 0.20 | 79 | 1013.9 |
| 20260504021626 | 40 | 227 | 0.0 | 0.0 | 0.00 | 0.22 | 0.20 | 79 | 1013.9 |
| 20260504021159 | 41 | 227 | 0.0 | 0.0 | 0.00 | 0.22 | 0.20 | 78 | 1013.9 |
| 20260504020645 | 41 | 227 | 0.0 | 0.0 | 0.00 | 0.22 | 0.20 | 77 | 1013.8 |
| 20260504020158 | 41 | 227 | 0.0 | 0.0 | 0.00 | 0.22 | 0.20 | 77 | 1013.9 |
| 20260504015624 | 41 | 227 | 0.0 | 0.0 | 0.00 | 0.22 | 0.20 | 77 | 1013.8 |
| 20260504015136 | 42 | 227 | 0.0 | 0.0 | 0.00 | 0.22 | 0.20 | 76 | 1013.8 |
| 20260504014623 | 42 | 227 | 0.0 | 0.0 | 0.00 | 0.22 | 0.20 | 75 | 1013.8 |
| 20260504014138 | 42 | 227 | 0.0 | 0.0 | 0.00 | 0.22 | 0.20 | 74 | 1013.8 |
| 20260504013630 | 43 | 227 | 0.0 | 0.0 | 0.00 | 0.22 | 0.20 | 74 | 1013.8 |
| 20260504013119 | 43 | 227 | 0.0 | 2.0 | 0.00 | 0.22 | 0.20 | 73 | 1013.7 |
| 20260504012635 | 43 | 227 | 0.0 | 2.0 | 0.00 | 0.22 | 0.20 | 72 | 1013.6 |
| 20260504012122 | 44 | 228 | 0.0 | 3.0 | 0.00 | 0.22 | 0.20 | 70 | 1013.6 |
| 20260504011636 | 44 | 228 | 1.0 | 3.0 | 0.00 | 0.22 | 0.20 | 69 | 1013.6 |
| 20260504011144 | 45 | 228 | 0.0 | 4.0 | 0.00 | 0.22 | 0.20 | 67 | 1013.5 |
| 20260504010616 | 46 | 228 | 1.0 | 4.0 | 0.00 | 0.22 | 0.20 | 65 | 1013.5 |
| 20260504010131 | 46 | 228 | 1.0 | 3.0 | 0.00 | 0.22 | 0.20 | 64 | 1013.5 |
| 20260504005621 | 47 | 227 | 0.0 | 2.0 | 0.00 | 0.22 | 0.20 | 61 | 1013.5 |
| 20260504005135 | 48 | 228 | 0.0 | 4.0 | 0.00 | 0.22 | 0.20 | 58 | 1013.5 |
| 20260504004644 | 49 | 226 | 2.0 | 4.0 | 0.00 | 0.22 | 0.20 | 56 | 1013.6 |
| 20260504004117 | 50 | 227 | 2.0 | 5.0 | 0.00 | 0.22 | 0.20 | 54 | 1013.4 |
| 20260504003652 | 50 | 214 | 1.0 | 4.0 | 0.00 | 0.22 | 0.20 | 52 | 1013.3 |
| 20260504003119 | 51 | 214 | 1.0 | 6.0 | 0.00 | 0.22 | 0.20 | 51 | 1013.3 |
| 20260504002633 | 51 | 214 | 2.0 | 6.0 | 0.00 | 0.22 | 0.20 | 50 | 1013.3 |
| 20260504002119 | 51 | 214 | 1.0 | 3.0 | 0.00 | 0.22 | 0.20 | 50 | 1013.3 |
| 20260504001633 | 52 | 214 | 1.0 | 5.0 | 0.00 | 0.22 | 0.20 | 49 | 1013.3 |
| 20260504001142 | 52 | 216 | 3.0 | 7.0 | 0.00 | 0.22 | 0.20 | 48 | 1013.3 |
| 20260504000655 | 53 | 219 | 4.0 | 7.0 | 0.00 | 0.22 | 0.20 | 48 | 1013.3 |
| 20260504000120 | 53 | 222 | 4.0 | 7.0 | 0.00 | 0.22 | 0.20 | 46 | 1013.3 |
| 20260503235656 | 54 | 241 | 3.0 | 7.0 | 0.00 | 0.22 | 0.20 | 45 | 1013.3 |
| 20260503235121 | 54 | 205 | 1.0 | 10.0 | 0.00 | 0.22 | 0.20 | 44 | 1013.2 |
| 20260503234636 | 54 | 234 | 3.0 | 10.0 | 0.00 | 0.22 | 0.20 | 44 | 1013.2 |
| 20260503234125 | 55 | 222 | 3.0 | 7.0 | 0.01 | 0.22 | 0.20 | 43 | 1013.2 |
| 20260503233618 | 55 | 224 | 4.0 | 12.0 | 0.01 | 0.22 | 0.20 | 42 | 1013.2 |
| 20260503233132 | 55 | 248 | 8.0 | 15.0 | 0.01 | 0.22 | 0.20 | 41 | 1013.1 |
| 20260503232620 | 56 | 232 | 7.0 | 15.0 | 0.01 | 0.22 | 0.20 | 42 | 1013.2 |
| 20260503232114 | 56 | 232 | 5.0 | 13.0 | 0.01 | 0.22 | 0.20 | 42 | 1013.1 |
| 20260503231644 | 56 | 247 | 3.0 | 14.0 | 0.01 | 0.22 | 0.20 | 41 | 1013.1 |
| 20260503231119 | 56 | 234 | 4.0 | 12.0 | 0.01 | 0.22 | 0.20 | 42 | 1013.1 |
| 20260503230632 | 57 | 210 | 8.0 | 12.0 | 0.01 | 0.22 | 0.20 | 40 | 1013.0 |
| 20260503230124 | 57 | 224 | 6.0 | 12.0 | 0.01 | 0.22 | 0.20 | 40 | 1013.0 |
| 20260503225619 | 57 | 231 | 1.0 | 9.0 | 0.01 | 0.22 | 0.20 | 41 | 1013.1 |
| 20260503225153 | 57 | 211 | 3.0 | 13.0 | 0.01 | 0.22 | 0.20 | 41 | 1013.2 |
| 20260503224620 | 57 | 259 | 7.0 | 16.0 | 0.01 | 0.22 | 0.20 | 41 | 1013.1 |
| 20260503224156 | 57 | 237 | 10.0 | 16.0 | 0.00 | 0.21 | 0.19 | 41 | 1013.0 |